User: anonymous   Login
Location: Vancouver
(49.2500°N, 123.1330°W)
Time: 08:37:26
(UTC-08:00)
Language:

S-56A Canister/Altair - Orbit

View from above orbital plane
View from above orbital plane
View from above satellite
View from above satellite

Ground track
Ground track

The orbit data is extracted from the following two-line orbital elements,

1    82U 61004B   18019.86937859 -.00000000 +00000-0 +37134-4 0  9998
2    82 038.8524 215.1081 1173439 158.8875 206.4660 12.25913683699851
Epoch (UTC): 19 January 2018 20:51:54
Eccentricity: 0.1173439
inclination: 38.8524°
perigee height: 634 km
apogee height: 2499 km
right ascension of ascending node: 215.1081°
argument of perigee: 158.8875°
revolutions per day: 12.25913683
mean anomaly at epoch: 206.4660°
orbit number at epoch: 69985

The dashed part of the orbit path shows where the satellite is in the earth's shadow,  

DLR